User: anonymous   Login
Location: Unspecified
(0.0000°N, 0.0000°E)
Time: 11:41:48
(UTC+00:00)
Language:

AUTCUBE 2 - Orbit

View from above orbital plane
View from above orbital plane
View from above satellite
View from above satellite

Ground track
Ground track

The orbit data is extracted from the following two-line orbital elements,

1 43679U 18084J   19050.09445155  .00000062  00000-0  11749-4 0  9992
2 43679  97.8412 165.0715 0009240 357.5174   2.5974 14.91956781 16829
Epoch (UTC): 19 February 2019 02:16:00
Eccentricity: 0.0009240
inclination: 97.8412°
perigee height: 585 km
apogee height: 598 km
right ascension of ascending node: 165.0715°
argument of perigee: 357.5174°
revolutions per day: 14.91956781
mean anomaly at epoch: 2.5974°
orbit number at epoch: 1682

The dashed part of the orbit path shows where the satellite is in the earth's shadow,  

DLR